Ellensburg, WA
on Thursday, December 27, 2012

Thursday
Previous Day Next Day
Daily Summary
 ActualAverage (KYKM)Record (KYKM)
Temperature
Mean Temperature °F 28°F  
Max Temperature 35°F 34°F 62°F (1980)
Min Temperature 23°F 21°F -2°F (1948)
Degree Days
Heating Degree Days 36 37  
Month to date heating degree days 980  
Since 1 July heating degree days 2513  
Cooling Degree Days 0 0  
Month to date cooling degree days 0  
Year to date cooling degree days 472  
Moisture
Dew Point 24°F   
Average Humidity 84    
Maximum Humidity 89    
Minimum Humidity 70    
Precipitation
Precipitation 0.04 in 0.05 in 0.74 in (1965)
Month to date precipitation 1.35  
Year to date precipitation 8.07  
Snow
Snow 0.00 in 0.40 in 9.30 in (1973)
Month to date snowfall 8.3  
Year to date snowfall 20.5  
Since 1 July snowfall 11.9  
Snow Depth in   
Wind
Wind Speed 0 mph   
Max Wind Speed 6 mph   
Max Gust Speed mph   
Visibility 2 miles   
Events Fog , Snow   

Key: T is trace of precipitation, MM is missing value
Source: NWS Daily Summary
Time(PST)TemperatureDew PointHumidity Pressure Visibility Wind DirectionWind SpeedGust SpeedPrecipitationEvents Conditions
12:03 AM 30.2°F 26.6°F 86% 29.91 in 0.5 miles Calm Calm - N/A Fog Light Freezing Fog
12:53 AM 30.0°F 26.1°F 85% 29.97 in 0.2 miles Calm Calm - N/A Fog Light Freezing Fog
1:53 AM 30.0°F 26.1°F 85% 29.99 in 1.0 miles Calm Calm - N/A   Mist
2:01 AM 30.2°F 26.6°F 86% 29.94 in 1.8 miles Calm Calm - N/A   Overcast
2:15 AM 30.2°F 26.6°F 86% 29.95 in 2.0 miles Calm Calm - N/A   Overcast
2:53 AM 30.9°F 26.1°F 82% 30.00 in 2.5 miles Calm Calm - N/A   Haze
3:36 AM 30.2°F 26.6°F 86% 29.96 in 2.5 miles Calm Calm - N/A   Overcast
3:49 AM 30.2°F 26.6°F 86% 29.96 in 3.0 miles Calm Calm - N/A   Overcast
3:53 AM 30.9°F 26.1°F 82% 30.01 in 3.0 miles Calm Calm - N/A   Haze
4:06 AM 30.2°F 26.6°F 86% 29.96 in 2.5 miles Calm Calm - N/A   Overcast
4:22 AM 30.2°F 26.6°F 86% 29.96 in 3.0 miles Calm Calm - N/A   Overcast
4:46 AM 30.2°F 26.6°F 86% 29.96 in 2.0 miles Calm Calm - 0.00 in Snow Light Snow
4:53 AM 30.9°F 27.0°F 85% 30.01 in 2.0 miles Calm Calm - 0.00 in Snow Light Snow
5:06 AM 30.2°F 26.6°F 86% 29.97 in 3.0 miles Calm Calm - 0.00 in   Overcast
5:53 AM 30.0°F 25.0°F 82% 30.04 in 3.0 miles Calm Calm - 0.00 in   Haze
6:14 AM 30.2°F 26.6°F 86% 29.99 in 3.0 miles Calm Calm - N/A   Overcast
6:30 AM 30.2°F 26.6°F 86% 29.99 in 2.5 miles Calm Calm - N/A   Overcast
6:50 AM 30.2°F 26.6°F 86% 29.99 in 3.0 miles Calm Calm - N/A   Overcast
7:18 AM 28.4°F 24.8°F 86% 30.00 in 2.5 miles Calm Calm - N/A   Overcast
7:25 AM 28.4°F 24.8°F 86% 29.99 in 2.5 miles Calm Calm - N/A   Overcast
7:53 AM 27.0°F 23.0°F 85% 30.06 in 3.0 miles Calm Calm - N/A   Mostly Cloudy
7:57 AM 26.6°F 23.0°F 86% 30.00 in 1.8 miles Calm Calm - N/A   Mostly Cloudy
8:04 AM 26.6°F 21.2°F 80% 30.01 in 0.8 miles Calm Calm - N/A   Mostly Cloudy
8:20 AM 24.8°F 19.4°F 80% 30.01 in 0.2 miles Calm Calm - N/A   Haze
8:34 AM 24.8°F 21.2°F 86% 30.02 in 1.8 miles Calm Calm - N/A   Overcast
8:36 AM 24.8°F 21.2°F 86% 30.02 in 3.0 miles Calm Calm - N/A   Overcast
8:38 AM 26.6°F 21.2°F 80% 30.02 in 1.5 miles Calm Calm - N/A   Haze
8:51 AM 26.6°F 23.0°F 86% 30.02 in 3.0 miles Calm Calm - N/A   Overcast
8:53 AM 27.0°F 23.0°F 85% 30.08 in 3.0 miles Calm Calm - N/A   Overcast
9:24 AM 28.4°F 24.8°F 86% 30.03 in 4.0 miles Calm Calm - N/A   Haze
9:34 AM 28.4°F 23.0°F 80% 30.04 in 4.0 miles Calm Calm - N/A   Haze
9:40 AM 28.4°F 24.8°F 86% 30.04 in 1.8 miles Calm Calm - N/A   Haze
9:49 AM 30.2°F 24.8°F 80% 30.04 in 0.2 miles Calm Calm - N/A   Haze
9:53 AM 30.0°F 25.0°F 82% 30.10 in 0.2 miles Calm Calm - N/A   Haze
10:53 AM 30.0°F 26.1°F 85% 30.11 in 0.2 miles Calm Calm - N/A Fog Light Freezing Fog
11:53 AM 30.0°F 25.0°F 82% 30.11 in 0.5 miles Calm Calm - 0.01 in   Haze
12:01 PM 30.2°F 24.8°F 80% 30.05 in 1.2 miles Calm Calm - N/A   Haze
12:08 PM 30.2°F 26.6°F 86% 30.04 in 3.0 miles Calm Calm - N/A   Haze
12:53 PM 33.1°F 27.0°F 78% 30.09 in 4.0 miles Calm Calm - 0.03 in   Haze
1:08 PM 35.6°F 26.6°F 70% 30.04 in 5.0 miles Calm Calm - N/A   Haze
1:48 PM 32.0°F 26.6°F 80% 30.04 in 7.0 miles Calm Calm - N/A   Mostly Cloudy
1:53 PM 30.9°F 26.1°F 82% 30.10 in 6.0 miles Calm Calm - N/A   Haze
2:44 PM 32.0°F 26.6°F 80% 30.06 in 3.0 miles Calm Calm - N/A   Haze
2:53 PM 30.0°F 24.1°F 79% 30.11 in 3.0 miles Calm Calm - N/A   Haze
3:29 PM 28.4°F 24.8°F 86% 30.05 in 2.0 miles Calm Calm - N/A   Haze
3:32 PM 28.4°F 23.0°F 80% 30.06 in 1.0 miles NNE 4.6 mph - N/A   Haze
3:38 PM 26.6°F 21.2°F 80% 30.06 in 0.2 miles North 5.8 mph - N/A   Haze
4:17 PM 24.8°F 21.2°F 86% 30.07 in 0.2 miles NW 5.8 mph - N/A Fog Light Freezing Fog
4:53 PM 27.0°F 24.1°F 89% 30.13 in 0.2 miles NNW 3.5 mph - N/A Fog Light Freezing Fog
5:53 PM 26.1°F 21.9°F 84% 30.15 in 0.2 miles Calm Calm - N/A Fog Light Freezing Fog
6:53 PM 25.0°F 21.9°F 88% 30.15 in 0.2 miles Calm Calm - N/A Fog Light Freezing Fog
7:53 PM 26.1°F 23.0°F 88% 30.16 in 0.2 miles Calm Calm - N/A Fog Light Freezing Fog
8:53 PM 25.0°F 21.9°F 88% 30.17 in 0.2 miles Calm Calm - N/A Fog Light Freezing Fog
9:53 PM 24.1°F 19.9°F 84% 30.19 in 0.2 miles Calm Calm - N/A Fog Light Freezing Fog
10:53 PM 24.1°F 21.0°F 88% 30.20 in 0.2 miles Calm Calm - N/A Fog Light Freezing Fog
11:53 PM 23.0°F 19.9°F 88% 30.20 in 0.2 miles Calm Calm - N/A Fog Light Freezing Fog
Moon Phase
Dec. 27 Dec. 28 Jan. 04 Jan. 11 Jan. 18
Sunrise:07:47 AM (PST) Moon Rise:04:09 PM (PST)
Sunset:04:19 PM (PST) Moon Set:07:00 AM (PST)

Copyright © 2014 The Weather Underground, Inc.